• In Deutschland
  • Länderverzeichnis
  • Für 7 Tage
  • Wassertemperatur
  • Satellitenkarten
  • Wetterkarte
  • Widgets
  • user-avatar
    Anmelden

    Stündliche Wetter Saurimo

    Heute, 17 November, Freitag

    Zeit Temperatur Niederschläge Wind Luftdruck Luftfeuchtigkeit
    00:00 +21°C° 0 mm 1 m/S 669 mmHg 96%
    01:00 +20°C° 0 mm 1 m/S 669 mmHg 97%
    02:00 +20°C° 0 mm 1 m/S 669 mmHg 97%
    03:00 +20°C° 0 mm 1 m/S 669 mmHg 97%
    04:00 +20°C° 0 mm 1 m/S 668 mmHg 97%
    05:00 +21°C° 0 mm 1 m/S 669 mmHg 95%
    06:00 +22°C° 0 mm 1 m/S 669 mmHg 92%
    07:00 +23°C° 0 mm 1 m/S 670 mmHg 87%
    08:00 +25°C° 1,1 mm 1 m/S 670 mmHg 82%
    09:00 +26°C° 1,1 mm 1 m/S 670 mmHg 76%
    10:00 +28°C° 1,1 mm 1 m/S 670 mmHg 71%
    11:00 +28°C° 3 mm 1 m/S 670 mmHg 73%
    12:00 +28°C° 3 mm 1 m/S 669 mmHg 75%
    13:00 +27°C° 0 mm 1 m/S 669 mmHg 76%
    14:00 +27°C° 1,6 mm 1 m/S 669 mmHg 79%
    15:00 +26°C° 1,6 mm 1 m/S 668 mmHg 82%
    16:00 +26°C° 1,6 mm 1 m/S 668 mmHg 85%
    17:00 +25°C° 0,8 mm 1 m/S 668 mmHg 87%
    18:00 +23°C° 0,8 mm 1 m/S 669 mmHg 89%
    19:00 +20°C° 0,8 mm 0 m/S 669 mmHg 91%
    20:00 +22°C° 0,2 mm 1 m/S 669 mmHg 92%
    21:00 +22°C° 0,2 mm 1 m/S 670 mmHg 92%
    22:00 +21°C° 0,2 mm 1 m/S 670 mmHg 93%
    23:00 +21°C° 0,5 mm 1 m/S 670 mmHg 94%

    Morgen, 18 November, Samstag

    Zeit Temperatur Niederschläge Wind Luftdruck Luftfeuchtigkeit
    00:00 +21°C° 0,5 mm 1 m/S 669 mmHg 94%
    01:00 +20°C° 0,5 mm 1 m/S 669 mmHg 95%
    02:00 +20°C° 0,2 mm 1 m/S 669 mmHg 95%
    03:00 +20°C° 0,2 mm 1 m/S 669 mmHg 96%
    04:00 +20°C° 0,2 mm 1 m/S 669 mmHg 97%
    05:00 +20°C° 0,3 mm 1 m/S 669 mmHg 96%
    06:00 +21°C° 0,3 mm 1 m/S 670 mmHg 95%
    07:00 +21°C° 0,3 mm 1 m/S 670 mmHg 94%
    08:00 +22°C° 0,4 mm 1 m/S 670 mmHg 91%
    09:00 +22°C° 0,4 mm 1 m/S 671 mmHg 88%
    10:00 +23°C° 0,4 mm 1 m/S 671 mmHg 85%
    11:00 +24°C° 0,3 mm 2 m/S 671 mmHg 82%
    12:00 +24°C° 0,3 mm 2 m/S 670 mmHg 79%
    13:00 +25°C° 0,3 mm 2 m/S 669 mmHg 77%
    14:00 +25°C° 0 mm 2 m/S 669 mmHg 77%
    15:00 +25°C° 0 mm 2 m/S 669 mmHg 77%
    16:00 +25°C° 0 mm 2 m/S 668 mmHg 77%
    17:00 +23°C° 0 mm 1 m/S 668 mmHg 80%
    18:00 +22°C° 0 mm 1 m/S 668 mmHg 83%
    19:00 +21°C° 0 mm 1 m/S 669 mmHg 86%
    20:00 +21°C° 0 mm 1 m/S 669 mmHg 83%
    21:00 +20°C° 0 mm 1 m/S 669 mmHg 81%
    22:00 +20°C° 0 mm 1 m/S 669 mmHg 78%
    23:00 +20°C° 0,1 mm 1 m/S 669 mmHg 78%

    übermorgen, 19 November, Sonntag

    Zeit Temperatur Niederschläge Wind Luftdruck Luftfeuchtigkeit
    00:00 +20°C° 0,1 mm 1 m/S 668 mmHg 77%
    01:00 +19°C° 0,1 mm 1 m/S 668 mmHg 77%
    02:00 +19°C° 0,3 mm 1 m/S 668 mmHg 80%
    03:00 +19°C° 0,3 mm 1 m/S 668 mmHg 83%
    04:00 +18°C° 0,3 mm 1 m/S 668 mmHg 87%
    05:00 +17°C° 0,1 mm 0 m/S 669 mmHg 85%
    06:00 +19°C° 0,1 mm 0 m/S 669 mmHg 83%
    07:00 +20°C° 0,1 mm 0 m/S 670 mmHg 81%
    08:00 +23°C° 0 mm 0 m/S 671 mmHg 73%
    09:00 +26°C° 0 mm 0 m/S 671 mmHg 64%
    10:00 +30°C° 0 mm 1 m/S 672 mmHg 56%
    11:00 +31°C° 0,1 mm 1 m/S 671 mmHg 53%
    12:00 +31°C° 0,1 mm 1 m/S 670 mmHg 50%
    13:00 +32°C° 0,1 mm 2 m/S 669 mmHg 47%
    14:00 +31°C° 0 mm 2 m/S 669 mmHg 51%
    15:00 +31°C° 0 mm 1 m/S 668 mmHg 55%
    16:00 +30°C° 0 mm 1 m/S 668 mmHg 58%
    17:00 +28°C° 0 mm 1 m/S 668 mmHg 64%
    18:00 +26°C° 0 mm 1 m/S 668 mmHg 70%
    19:00 +24°C° 0 mm 1 m/S 669 mmHg 76%
    20:00 +23°C° 0,2 mm 1 m/S 669 mmHg 81%
    21:00 +22°C° 0,2 mm 1 m/S 669 mmHg 86%
    22:00 +21°C° 0,2 mm 1 m/S 670 mmHg 91%
    23:00 +21°C° 2,1 mm 1 m/S 670 mmHg 93%

    20 November, Montag

    Zeit Temperatur Niederschläge Wind Luftdruck Luftfeuchtigkeit
    00:00 +20°C° 2,1 mm 1 m/S 669 mmHg 95%
    01:00 +20°C° 2,1 mm 1 m/S 669 mmHg 98%
    02:00 +20°C° 0,6 mm 1 m/S 669 mmHg 98%
    03:00 +20°C° 0,6 mm 1 m/S 669 mmHg 98%
    04:00 +20°C° 0,6 mm 1 m/S 669 mmHg 98%
    05:00 +21°C° 0,6 mm 1 m/S 670 mmHg 96%
    06:00 +22°C° 0,6 mm 1 m/S 670 mmHg 94%
    07:00 +22°C° 0,6 mm 1 m/S 671 mmHg 92%
    08:00 +24°C° 0 mm 1 m/S 671 mmHg 83%
    09:00 +26°C° 0 mm 1 m/S 671 mmHg 74%
    10:00 +28°C° 0 mm 1 m/S 672 mmHg 65%
    11:00 +29°C° 0 mm 1 m/S 671 mmHg 60%
    12:00 +31°C° 0 mm 1 m/S 670 mmHg 55%
    13:00 +32°C° 0 mm 1 m/S 670 mmHg 50%
    14:00 +31°C° 0 mm 1 m/S 669 mmHg 54%
    15:00 +30°C° 0 mm 1 m/S 669 mmHg 58%
    16:00 +30°C° 0 mm 1 m/S 669 mmHg 61%
    17:00 +28°C° 0,4 mm 1 m/S 669 mmHg 68%
    18:00 +25°C° 0,4 mm 1 m/S 669 mmHg 76%
    19:00 +23°C° 0,4 mm 2 m/S 669 mmHg 83%
    20:00 +22°C° 1,3 mm 1 m/S 670 mmHg 87%
    21:00 +22°C° 1,3 mm 1 m/S 670 mmHg 91%
    22:00 +21°C° 1,3 mm 1 m/S 670 mmHg 96%
    23:00 +21°C° 1 mm 1 m/S 670 mmHg 96%

    21 November, Dienstag

    Zeit Temperatur Niederschläge Wind Luftdruck Luftfeuchtigkeit
    00:00 +21°C° 1 mm 1 m/S 669 mmHg 97%
    01:00 +21°C° 1 mm 1 m/S 669 mmHg 97%
    02:00 +21°C° 0,4 mm 1 m/S 669 mmHg 97%
    03:00 +21°C° 0,4 mm 1 m/S 669 mmHg 96%
    04:00 +20°C° 0,4 mm 2 m/S 669 mmHg 96%
    05:00 +20°C° 0 mm 2 m/S 670 mmHg 94%
    06:00 +21°C° 0 mm 2 m/S 670 mmHg 92%
    07:00 +21°C° 0 mm 2 m/S 671 mmHg 91%
    08:00 +23°C° 0,8 mm 2 m/S 671 mmHg 88%
    09:00 +24°C° 0,8 mm 2 m/S 671 mmHg 85%
    10:00 +26°C° 0,8 mm 2 m/S 670 mmHg 82%
    11:00 +26°C° 0,8 mm 2 m/S 670 mmHg 79%
    12:00 +27°C° 0,8 mm 2 m/S 669 mmHg 76%
    13:00 +27°C° 0,8 mm 2 m/S 668 mmHg 73%
    14:00 +27°C° 0,5 mm 2 m/S 668 mmHg 73%
    15:00 +27°C° 0,5 mm 2 m/S 668 mmHg 73%
    16:00 +27°C° 0,5 mm 1 m/S 668 mmHg 74%
    17:00 +25°C° 1,3 mm 1 m/S 668 mmHg 79%
    18:00 +24°C° 1,3 mm 1 m/S 669 mmHg 85%
    19:00 +22°C° 1,3 mm 1 m/S 669 mmHg 91%
    20:00 +22°C° 0 mm 1 m/S 669 mmHg 91%
    21:00 +21°C° 0 mm 1 m/S 669 mmHg 91%
    22:00 +21°C° 0 mm 1 m/S 669 mmHg 92%
    23:00 +21°C° 0 mm 1 m/S 669 mmHg 92%

    22 November, Mittwoch

    Zeit Temperatur Niederschläge Wind Luftdruck Luftfeuchtigkeit
    00:00 +21°C° 0 mm 1 m/S 668 mmHg 93%
    01:00 +20°C° 0 mm 1 m/S 668 mmHg 93%
    02:00 +20°C° 0,3 mm 1 m/S 668 mmHg 94%
    03:00 +20°C° 0,3 mm 1 m/S 668 mmHg 95%
    04:00 +20°C° 0,3 mm 1 m/S 668 mmHg 96%
    05:00 +21°C° 0 mm 1 m/S 669 mmHg 94%
    06:00 +20°C° 0 mm 2 m/S 670 mmHg 93%
    07:00 +21°C° 0 mm 2 m/S 670 mmHg 91%
    08:00 +23°C° 0,5 mm 2 m/S 670 mmHg 86%
    09:00 +25°C° 0,5 mm 2 m/S 670 mmHg 80%
    10:00 +27°C° 0,5 mm 2 m/S 670 mmHg 74%
    11:00 +28°C° 0,5 mm 2 m/S 670 mmHg 68%
    12:00 +29°C° 0,5 mm 1 m/S 669 mmHg 61%
    13:00 +30°C° 0,5 mm 1 m/S 668 mmHg 54%
    14:00 +30°C° 0,2 mm 1 m/S 668 mmHg 58%
    15:00 +29°C° 0,2 mm 1 m/S 668 mmHg 62%
    16:00 +29°C° 0,2 mm 1 m/S 667 mmHg 66%
    17:00 +27°C° 0,4 mm 1 m/S 668 mmHg 73%
    18:00 +25°C° 0,4 mm 1 m/S 668 mmHg 80%
    19:00 +23°C° 0,4 mm 1 m/S 668 mmHg 87%
    20:00 +21°C° 1,8 mm 2 m/S 668 mmHg 90%
    21:00 +21°C° 1,8 mm 2 m/S 669 mmHg 93%
    22:00 +20°C° 1,8 mm 2 m/S 669 mmHg 96%
    23:00 +20°C° 0,9 mm 2 m/S 669 mmHg 96%
    Mehr zeigen